Sexton Summit, OR

4:13 AM PDT on October 21, 2019 (GMT -0700)
Sexton Summit

Weather History for KSXT - September, 2019

Change the Weather History Date:

Tuesday, September 17, 2019

  Actual Average Record
Temperature  
Mean Temperature 46 °F -  
Max Temperature 48 °F 66 °F 84 °F (2008)
Min Temperature 43 °F 48 °F 37 °F (2003)
Degree Days  
Heating Degree Days 20    
Moisture  
Dew Point 45 °F    
Average Humidity 97    
Maximum Humidity 100    
Minimum Humidity 83    
Precipitation  
Precipitation 0.39 in - - ()
Sea Level Pressure  
Sea Level Pressure 29.95 in    
Wind  
Wind Speed 13 mph (South)    
Max Wind Speed 22 mph    
Max Gust Speed 36 mph    
Visibility 4 miles    
Events Fog , Rain    
Averages and records for this station are not official NWS values.
T = Trace of Precipitation, MM = Missing Value Source: NWS Daily Summary

Daily Weather History Graph

Daily Weather History Graph

Search for Another Location

Airport or City:

Astronomy

Sep. 17, 2019 Rise Set
Actual Time 6:55 AM PDT 7:19 PM PDT
Civil Twilight 6:27 AM PDT 7:48 PM PDT
Nautical Twilight 5:53 AM PDT 8:21 PM PDT
Astronomical Twilight 5:19 AM PDT 8:55 PM PDT
Moon 9:21 PM PDT (9/17) 10:08 AM PDT (9/17)
Length of Visible Light 13h 21m
Length of Day
12h 24m
Waning Gibbous, 88% of the Moon is Illuminated
Sep 17
Waning Gibbous
Sep 21
Last Quarter
Sep 28
New
Oct 5
First Quarter
Oct 13
Full

Hourly Weather History & Observations

Time (PDT) Temp. Windchill Dew Point Humidity Pressure Visibility Wind Dir Wind Speed Gust Speed Precip Events Conditions
12:56 AM 44.1 °F 38.6 °F 44.1 °F 100% 30.00 in 0.2 mi South 10.4 mph - N/A Fog Fog
1:56 AM 43.0 °F 37.2 °F 43.0 °F 100% 30.02 in 0.5 mi South 10.4 mph - N/A Fog Fog
2:08 AM 43.0 °F 36.4 °F 43.0 °F 100% 30.02 in 1.5 mi South 12.7 mph - N/A   Overcast
2:12 AM 43.0 °F 36.8 °F 43.0 °F 100% 30.02 in 3.0 mi South 11.5 mph - N/A   Mostly Cloudy
2:32 AM 43.0 °F 36.0 °F 43.0 °F 100% 30.01 in 9.0 mi South 13.8 mph 21.9 mph N/A   Mostly Cloudy
2:56 AM 43.0 °F 36.8 °F 43.0 °F 100% 30.00 in 1.5 mi South 11.5 mph - N/A   Overcast
3:02 AM 43.0 °F 36.4 °F 43.0 °F 100% 30.01 in 0.8 mi South 12.7 mph 18.4 mph N/A   Overcast
3:22 AM 43.0 °F 36.4 °F 42.1 °F 97% 30.01 in 1.2 mi South 12.7 mph 20.7 mph N/A   Overcast
3:27 AM 43.0 °F 36.0 °F 42.1 °F 97% 30.01 in 2.5 mi South 13.8 mph 20.7 mph N/A   Overcast
3:33 AM 43.0 °F 36.4 °F 43.0 °F 100% 30.01 in 6.0 mi South 12.7 mph - N/A   Overcast
3:56 AM 43.0 °F 36.0 °F 42.1 °F 97% 29.98 in 10.0 mi South 13.8 mph - N/A   Overcast
4:56 AM 43.0 °F 35.7 °F 42.1 °F 97% 29.96 in 10.0 mi South 15.0 mph 21.9 mph N/A   Overcast
5:44 AM 43.0 °F 36.4 °F 42.1 °F 97% 29.99 in 10.0 mi South 12.7 mph 24.2 mph 0.00 in   Overcast
5:56 AM 43.0 °F 35.7 °F 42.1 °F 97% 29.96 in 10.0 mi South 15.0 mph 24.2 mph 0.00 in   Overcast
7:29 AM 44.1 °F 37.1 °F 41.0 °F 89% 29.98 in 10.0 mi South 15.0 mph 27.6 mph 0.00 in   Overcast
7:56 AM 44.1 °F 36.8 °F 41.0 °F 89% 29.96 in 10.0 mi South 16.1 mph 32.2 mph 0.00 in   Overcast
9:23 AM 45.0 °F 37.1 °F 43.0 °F 93% 29.96 in 10.0 mi South 19.6 mph 35.7 mph N/A   Overcast
9:56 AM 46.0 °F 38.0 °F 42.1 °F 86% 29.94 in 10.0 mi South 21.9 mph 34.5 mph N/A   Overcast
10:32 AM 46.9 °F - 42.1 °F 83% 29.96 in 10.0 mi South 19.6 mph 31.1 mph N/A   Overcast
10:56 AM 46.9 °F - 42.1 °F 83% 29.94 in 10.0 mi South 18.4 mph 33.4 mph 0.00 in Rain Light Rain
11:56 AM 46.9 °F - 45.0 °F 93% 29.94 in 10.0 mi South 11.5 mph 21.9 mph 0.01 in Rain Light Rain
12:32 PM 46.9 °F - 45.0 °F 93% 29.96 in 3.0 mi South 11.5 mph 20.7 mph 0.03 in Rain Light Rain
12:40 PM 46.0 °F 40.6 °F 46.0 °F 100% 29.96 in 0.8 mi South 11.5 mph - 0.04 in Rain Rain
12:46 PM 46.9 °F - 46.0 °F 97% 29.96 in 0.2 mi South 11.5 mph - 0.04 in Fog , Rain Light Rain
12:56 PM 46.9 °F - 46.0 °F 97% 29.94 in 0.2 mi South 9.2 mph 18.4 mph 0.06 in Fog , Rain Light Rain
1:43 PM 46.9 °F - 46.9 °F 100% 29.95 in 0.2 mi South 8.1 mph - 0.04 in Fog , Rain Light Rain
1:56 PM 48.0 °F - 46.9 °F 96% 29.93 in 0.2 mi Variable 6.9 mph - 0.04 in Fog , Rain Light Rain
2:40 PM 48.0 °F - 46.9 °F 96% 29.93 in 0.2 mi SSW 13.8 mph 26.5 mph 0.04 in Fog , Rain Light Rain
2:56 PM 48.0 °F - 46.9 °F 96% 29.91 in 0.2 mi South 17.3 mph 32.2 mph 0.05 in Fog , Rain Light Rain
3:45 PM 48.0 °F - 48.0 °F 100% 29.91 in 0.2 mi SSW 17.3 mph 28.8 mph 0.03 in Fog , Rain Light Rain
3:56 PM 48.0 °F - 48.0 °F 100% 29.89 in 0.2 mi South 18.4 mph 32.2 mph 0.04 in Fog , Rain Light Rain
4:31 PM 48.0 °F - 48.0 °F 100% 29.90 in 0.2 mi SSW 18.4 mph 32.2 mph 0.02 in Fog , Rain Light Rain
4:56 PM 48.0 °F - 48.0 °F 100% 29.88 in 0.2 mi South 17.3 mph 33.4 mph 0.03 in Fog , Rain Light Rain
5:56 PM 48.9 °F - 48.9 °F 100% 29.88 in 0.2 mi South 10.4 mph 19.6 mph 0.07 in Fog , Rain Rain
6:56 PM 48.9 °F - 48.9 °F 100% 29.86 in 0.2 mi South 12.7 mph 21.9 mph 0.08 in Fog , Rain Light Rain
7:40 PM 48.9 °F - 48.9 °F 100% 29.89 in 0.2 mi South 10.4 mph - 0.00 in Fog , Rain Light Rain
7:56 PM 48.9 °F - 48.9 °F 100% 29.87 in 0.2 mi South 10.4 mph - 0.00 in Fog , Rain Light Rain
8:56 PM 48.9 °F - 48.9 °F 100% 29.88 in 0.2 mi South 11.5 mph 19.6 mph 0.00 in Fog , Rain Light Rain
9:56 PM 48.0 °F - 48.0 °F 100% 29.88 in 0.2 mi South 9.2 mph 19.6 mph 0.00 in Fog , Rain Light Rain
10:56 PM 48.0 °F - 48.0 °F 100% 29.86 in 0.2 mi South 10.4 mph - 0.01 in Fog , Rain Light Rain